STARLINK-2250, 48593

Orbit data source: Space-Track

STARLINK-2250, 48593 is a payload satellite owned by SpaceX/Seattle (US) in LEO that was launched on Sat, 15 May 2021 UTC via an FALCON 9 launch vehicle from the Air Force Eastern Test Range (AFETR). Payload-class satellites include a variety of spacecraft equipped with specific instruments for various scientific and technological missions. These include communications satellites like Starlink; space stations such as the ISS; scientific satellites like the Hubble; Earth observation satellites from companies like Planet Labs, Umbra, and HawkEye 360; GPS; miniature CubeSats for education and research; and military/defense satellites.

Loading next visibility...
Identifier
48593, 2021-041AS
Orbit
LEO
Country
Flag of USUS
Related business
Manufacturer
SpaceX/Seattle
Mission
Operational Commercial Communications
Bus & Motor
STARLINK, Unknown motor
Mass
260 kg wet, ~248 kg dry
Launch date (UTC)
2021-05-15 (5 years ago)
Launch vehicle
FALCON 9
Launch site
Air Force Eastern Test Range (AFETR)
Object type
Payload
Rocket body
Debris
Shape & HBR
Box + 1 Pan, 10.1 m
Radar Cross Section
13.562 m², Large (>1 m²)

Expand to show TLE details & history
Last TLE update: 18 hours ago

TLE from 18 hours ago
0 STARLINK-2250
1 48593U 21041AS  25348.86062471  .00000502  00000-0  52602-4 0  9999
2 48593  53.0537 162.4298 0001583  85.5825 274.5345 15.06387232252271
Epoch: 2025-12-14T20:39Z
TLE epoch observation values (Epoch: 2025-12-14T20:39:17.974Z)
Latitude
-0.00003°
Longitude
128.83741°
Altitude
548.043 km
Speed
7.589 km/s
True Right ascension
10h 49m 43s
True Declination
0° 00' 00"
Sunlit
Object was in daylight at epoch
Visualization orbit readout
Latitude
Unknown
Longitude
Unknown
Altitude
Unknown
Speed
Unknown
Apparent Right ascension
Unknown
Apparent Declination
Unknown
Sunlit
N/A
Visualization observer readout
Local Sidereal Time
13:19:00
Azimuth
Unknown
Elevation
Unknown
Doppler factor
Unknown
Orbital elements
Apogee altitude
548.618 km
Perigee altitude
546.425 km
Semi-major axis
6,925.659 km
Eccentricity
0.00016
Inclination
53.0537°
RAAN
162.4298°
Arg. of periapsis
85.5825°
True anomaly
274.51642°
Mean anomaly
274.5345°
Eccentric anomaly
274.52546°
Mean motion
3.76575 °/min
Orbital period
95.6 mins
BSTAR
0.000052602
Loading maneuver chart data...
Computing Atmospheric mass density...
Loading historical data...
Loading historical data...
Loading historical data...
Loading historical data...
Loading historical data...
Loading historical data...
Loading historical data...

Documentation

Showing up to 5 results
|